Campo, CA

12:56 AM PDT on October 14, 2019 (GMT -0700)
Campo

Weather History for KCZZ - August, 2019

Change the Weather History Date:

Wednesday, August 7, 2019

  Actual Average Record
Temperature  
Mean Temperature 78 °F -  
Max Temperature 95 °F - 105 °F (1970)
Min Temperature 60 °F - 38 °F (1976)
Cooling Degree Days 13    
Month to date cooling degree days 100  
Year to date cooling degree days 428  
Since 1 June cooling degree days 426  
Growing Degree Days 28 (Base 50)    
Moisture  
Dew Point 54 °F    
Average Humidity 46    
Maximum Humidity 68    
Minimum Humidity 24    
Precipitation  
Precipitation 0.00 in - 0.55 in (1963)
Month to date precipitation 0.00  
Year to date precipitation 12.82  
Sea Level Pressure  
Sea Level Pressure 29.85 in    
Wind  
Wind Speed 7 mph (SSW)    
Max Wind Speed 21 mph    
Max Gust Speed 26 mph    
T = Trace of Precipitation, MM = Missing Value Source: NWS Daily Summary

Daily Weather History Graph

Daily Weather History Graph

Search for Another Location

Airport or City:

Astronomy

Aug. 07, 2019 Rise Set
Actual Time 6:04 AM PDT 7:38 PM PDT
Civil Twilight 5:37 AM PDT 8:05 PM PDT
Nautical Twilight 5:05 AM PDT 8:36 PM PDT
Astronomical Twilight 4:32 AM PDT 9:10 PM PDT
Moon 1:16 PM PDT (8/7) No Moon Set
Length of Visible Light 14h 27m
Length of Day
13h 34m
Waxing Crescent, 51% of the Moon is Illuminated
Aug 7
Waxing Crescent
Aug 15
Full
Aug 23
Last Quarter
Aug 30
New
Sep 5
First Quarter

Hourly Weather History & Observations

Time (PDT) Temp. Heat Index Dew Point Humidity Pressure Visibility Wind Dir Wind Speed Gust Speed Precip Events Conditions
12:52 AM 70.0 °F - 55.9 °F 61% 29.85 in - Calm Calm - N/A   Unknown
1:52 AM 66.9 °F - 55.0 °F 66% 29.84 in - NE 3.5 mph - N/A   Unknown
2:52 AM 66.9 °F - 55.0 °F 66% 29.84 in - NNE 3.5 mph - N/A   Unknown
3:52 AM 66.9 °F - 55.0 °F 66% 29.84 in - NE 4.6 mph - N/A   Unknown
4:52 AM 69.1 °F - 55.9 °F 63% 29.84 in - NNE 3.5 mph - N/A   Unknown
5:52 AM 70.0 °F - 57.0 °F 63% 29.85 in - Calm Calm - N/A   Unknown
6:52 AM 70.0 °F - 57.0 °F 63% 29.87 in - SSE 6.9 mph - N/A   Unknown
8:52 AM 78.1 °F - 57.9 °F 50% 29.89 in - Calm Calm - N/A   Unknown
9:52 AM 84.9 °F 83.3 °F 54.0 °F 34% 29.88 in - NNE 4.6 mph - N/A   Unknown
10:52 AM 91.0 °F - 52.0 °F 26% 29.86 in - SW 8.1 mph - N/A   Unknown
11:52 AM 91.0 °F 88.7 °F 54.0 °F 28% 29.85 in - SSW 15.0 mph - N/A   Unknown
12:52 PM 93.0 °F - 52.0 °F 25% 29.84 in - SW 11.5 mph - N/A   Unknown
1:52 PM 93.9 °F - 52.0 °F 24% 29.83 in - SW 12.7 mph - N/A   Unknown
2:52 PM 93.0 °F 90.6 °F 53.1 °F 26% 29.82 in - SW 16.1 mph - N/A   Unknown
3:52 PM 93.0 °F - 52.0 °F 25% 29.81 in - SW 13.8 mph - N/A   Unknown
4:52 PM 90.0 °F - 50.0 °F 25% 29.81 in - WSW 13.8 mph - N/A   Unknown
5:52 PM 84.9 °F - 52.0 °F 32% 29.81 in - SW 16.1 mph - N/A   Unknown
6:52 PM 79.0 °F - 57.0 °F 47% 29.83 in - SSW 10.4 mph - N/A   Unknown
7:52 PM 73.0 °F - 55.9 °F 55% 29.85 in - SSW 6.9 mph - N/A   Unknown
8:52 PM 71.1 °F - 55.9 °F 59% 29.86 in - Calm Calm - N/A   Unknown
9:52 PM 66.0 °F - 54.0 °F 65% 29.88 in - Calm Calm - N/A   Unknown
10:52 PM 64.0 °F - 53.1 °F 67% 29.88 in - NE 3.5 mph - N/A   Unknown
11:52 PM 64.0 °F - 54.0 °F 70% 29.87 in - Calm Calm - N/A   Unknown